Location: Kellogg
(38.0159°N, 90.0546°W)
Time: 14:43:20
(UTC+00:00)

Altair - All Passes

Search period start: 13 September 2024 00:00
Search period end: 23 September 2024 00:00
Orbit: 1501 x 1682 km, 47.2° (Epoch: 12 September)

Date Brightness Start Highest point End Pass type
(mag) Time Alt. Az. Time Alt. Az. Time Alt. Az.
13 Sep - 06:21:18 10° SSE 06:28:01 21° SE 06:34:51 10° E visible
13 Sep - 08:21:40 10° SW 08:31:33 71° SE 08:41:39 10° ENE visible
13 Sep - 10:26:54 10° W 10:36:51 59° NNW 10:46:54 10° ENE visible
13 Sep - 12:33:26 10° WNW 12:43:19 52° N 12:53:06 10° E daylight
13 Sep - 14:38:56 10° WNW 14:49:10 87° NNE 14:59:06 10° ESE daylight
13 Sep - 16:44:38 10° WNW 16:53:16 34° SW 17:01:41 10° S daylight
14 Sep - 05:56:49 10° SSE 06:02:56 18° ESE 06:09:08 10° E visible
14 Sep - 07:56:33 10° SW 08:06:20 66° SE 08:16:21 10° ENE visible
14 Sep - 10:01:33 10° W 10:11:30 61° NNW 10:21:35 10° ENE visible
14 Sep - 12:08:04 10° WNW 12:17:57 51° N 12:27:44 10° E daylight
14 Sep - 14:13:40 10° WNW 14:23:54 82° NNE 14:33:52 10° ESE daylight
14 Sep - 16:19:13 10° WNW 16:28:08 38° SW 16:36:50 10° SSE daylight
15 Sep - 05:32:28 10° SSE 05:37:51 16° ESE 05:43:18 10° E visible
15 Sep - 07:31:28 10° SW 07:41:07 62° SE 07:51:04 10° ENE visible
15 Sep - 09:36:13 10° W 09:46:10 63° NNW 09:56:18 10° ENE visible
15 Sep - 11:42:43 10° WNW 11:52:34 51° N 12:02:21 10° E daylight
15 Sep - 13:48:22 10° WNW 13:58:37 79° NNE 14:08:36 10° ESE daylight
15 Sep - 15:53:49 10° WNW 16:02:59 41° SW 16:11:55 10° SSE daylight
16 Sep - 05:08:19 10° SSE 05:12:47 14° ESE 05:17:16 10° E visible
16 Sep - 07:06:24 10° SSW 07:15:56 57° SE 07:25:45 10° ENE visible
16 Sep - 09:10:53 10° WSW 09:20:50 66° NNW 09:31:00 10° ENE visible
16 Sep - 11:17:21 10° WNW 11:27:11 51° N 11:36:59 10° ENE visible
16 Sep - 13:23:06 10° WNW 13:33:19 75° NNE 13:43:20 10° ESE daylight
16 Sep - 15:28:27 10° WNW 15:37:50 45° SW 15:46:59 10° SSE daylight
17 Sep - 04:44:34 10° SE 04:47:42 12° ESE 04:50:52 10° E night (unlit)
17 Sep - 06:41:21 10° SSW 06:50:45 53° SE 07:00:25 10° ENE visible
17 Sep - 08:45:33 10° WSW 08:55:31 69° NNW 09:05:42 10° ENE visible
17 Sep - 10:52:00 10° WNW 11:01:48 50° N 11:11:36 10° ENE visible
17 Sep - 12:57:48 10° WNW 13:08:01 72° NNE 13:18:02 10° ESE daylight
17 Sep - 15:03:06 10° WNW 15:12:40 49° SW 15:21:59 10° SSE daylight
17 Sep - 17:14:44 10° WSW 17:15:38 10° WSW 17:16:32 10° SW daylight
18 Sep - 06:16:21 10° SSW 06:25:35 48° SE 06:35:05 10° ENE visible
18 Sep - 08:20:15 10° WSW 08:30:12 72° NNW 08:40:24 10° ENE visible
18 Sep - 10:26:38 10° WNW 10:36:24 50° N 10:46:15 10° ENE visible
18 Sep - 12:32:31 10° WNW 12:42:42 68° NNE 12:52:43 10° ESE daylight
18 Sep - 14:37:46 10° WNW 14:47:29 53° SW 14:56:59 10° SSE daylight
18 Sep - 16:47:09 10° W 16:50:34 12° WSW 16:53:58 10° SW daylight
19 Sep - 05:51:23 10° SSW 06:00:25 44° SE 06:09:44 10° ENE visible
19 Sep - 07:54:58 10° WSW 08:04:54 75° NNW 08:15:07 10° ENE visible
19 Sep - 10:01:16 10° WNW 10:11:01 51° N 10:20:52 10° ENE visible
19 Sep - 12:07:13 10° WNW 12:17:22 66° NNE 12:27:24 10° ESE daylight
19 Sep - 14:12:26 10° WNW 14:22:18 58° SW 14:31:56 10° SSE daylight
19 Sep - 16:20:50 10° W 16:25:30 14° WSW 16:30:07 10° SSW daylight
20 Sep - 05:26:26 10° SSW 05:35:15 41° SE 05:44:21 10° ENE visible
20 Sep - 07:29:42 10° WSW 07:39:37 79° NNW 07:49:50 10° ENE visible
20 Sep - 09:35:54 10° W 09:45:39 51° N 09:55:30 10° ENE visible
20 Sep - 11:41:56 10° WNW 11:52:02 63° NNE 12:02:03 10° E daylight
20 Sep - 13:47:08 10° WNW 13:57:06 62° SW 14:06:51 10° SE daylight
20 Sep - 15:54:50 10° W 16:00:25 16° WSW 16:05:57 10° SSW daylight
21 Sep - 05:01:32 10° SSW 05:10:07 37° SE 05:18:58 10° ENE visible
21 Sep - 07:04:26 10° WSW 07:14:19 83° NNW 07:24:32 10° ENE visible
21 Sep - 09:10:32 10° W 09:20:16 51° N 09:30:08 10° ENE visible
21 Sep - 11:16:39 10° WNW 11:26:42 61° NNE 11:36:42 10° E visible
21 Sep - 13:21:50 10° WNW 13:31:53 67° SW 13:41:45 10° SE daylight
21 Sep - 15:29:00 10° W 15:35:19 19° WSW 15:41:34 10° SSW daylight
22 Sep - 04:36:41 10° S 04:44:59 34° SE 04:53:33 10° ENE visible
22 Sep - 06:39:12 10° WSW 06:49:03 87° NNW 06:59:15 10° ENE visible
22 Sep - 08:45:10 10° W 08:54:53 52° N 09:04:47 10° ENE visible
22 Sep - 10:51:21 10° WNW 11:01:21 59° NNE 11:11:21 10° E visible
22 Sep - 12:56:33 10° WNW 13:06:40 71° SW 13:16:37 10° SE daylight
22 Sep - 15:03:18 10° W 15:10:13 21° SW 15:17:04 10° S daylight
